Location: Oshawa
(43.9000°N, 78.8670°W)
Time: 18:31:06
(UTC-04:00)

CZ-4C R/B - Visible Passes

Search period start: 01 August 2014 00:00
Search period end: 11 August 2014 00:00
Orbit: 438 x 558 km, 97.6° (Epoch: 31 July)

Date Brightness Start Highest point End Pass type
(mag) Time Alt. Az. Time Alt. Az. Time Alt. Az.
01 Aug 5.9 00:34:23 13° W 00:34:23 13° W 00:36:05 10° WNW visible
01 Aug 4.3 22:39:25 29° E 22:40:08 31° ENE 22:43:41 10° N visible
02 Aug 5.3 00:14:04 22° W 00:14:04 22° W 00:16:58 10° NW visible
02 Aug 5.0 22:19:06 18° E 22:20:07 20° ENE 22:23:01 10° NNE visible
02 Aug 4.5 23:53:45 36° W 23:53:45 36° W 23:57:16 10° NNW visible
03 Aug 5.5 21:58:47 11° E 22:00:10 12° ENE 22:01:51 10° NE visible
03 Aug 3.6 23:33:26 63° W 23:33:26 63° W 23:37:18 10° NNW visible
04 Aug 3.2 23:13:06 74° E 23:13:07 74° ENE 23:17:08 10° N visible
05 Aug 3.9 22:52:46 42° E 22:52:59 43° ENE 22:56:48 10° N visible
06 Aug 5.7 00:27:24 16° W 00:27:24 16° W 00:29:23 10° NW visible
06 Aug 4.6 22:32:25 25° E 22:32:54 26° ENE 22:36:15 10° NNE visible
07 Aug 5.1 00:07:04 25° W 00:07:04 25° W 00:09:55 10° NW visible
07 Aug 5.2 22:12:04 16° E 22:12:52 17° ENE 22:15:25 10° NNE visible
07 Aug 4.3 23:46:43 42° WNW 23:46:43 42° WNW 23:50:03 10° NNW visible
08 Aug 5.7 21:52:17 10° ENE 21:52:53 10° ENE 21:53:29 10° NE visible
08 Aug 3.6 23:26:22 68° NW 23:26:22 68° NW 23:29:57 10° NNW visible
09 Aug 3.6 23:06:00 58° NE 23:06:00 58° NE 23:09:40 10° N visible
10 Aug 6.2 00:40:38 11° WNW 00:40:38 11° WNW 00:41:13 10° WNW visible
10 Aug 4.2 22:45:38 35° ENE 22:45:38 35° ENE 22:49:13 10° N visible
